Time,TemperatureF,DewpointF,PressureIn,WindDirection,WindDirectionDegrees,WindSpeedMPH,WindSpeedGustMPH,Humidity,HourlyPrecipIn,Conditions,Clouds,dailyrainin,SoftwareType,DateUTC
2013-04-03 00:11:00,49.0,45.0,30.16,SE,139,0.0,0.0,85,-99.99,,,-99.99,,2013-04-03 07:11:00,
2013-04-03 00:22:00,49.0,45.0,30.16,SE,139,0.0,0.0,85,-99.99,,,-99.99,,2013-04-03 07:22:00,
2013-04-03 00:31:00,49.0,45.0,30.16,SE,139,0.0,0.0,85,-99.99,,,-99.99,,2013-04-03 07:31:00,
2013-04-03 00:42:00,49.0,45.0,30.16,SE,139,0.0,0.0,85,-99.99,,,-99.99,,2013-04-03 07:42:00,
2013-04-03 00:52:00,49.0,45.0,30.16,SE,139,0.0,0.0,86,-99.99,,,-99.99,,2013-04-03 07:52:00,
2013-04-03 01:02:00,48.0,44.0,30.16,SE,139,0.0,0.0,86,-99.99,,,-99.99,,2013-04-03 08:02:00,
2013-04-03 01:11:00,48.0,44.0,30.16,SE,139,0.0,0.0,86,-99.99,,,-99.99,,2013-04-03 08:11:00,
2013-04-03 01:22:00,48.0,44.0,30.16,SE,139,0.0,1.0,86,-99.99,,,-99.99,,2013-04-03 08:22:00,
2013-04-03 01:32:00,48.0,44.0,30.16,SE,139,0.0,1.0,86,-99.99,,,-99.99,,2013-04-03 08:32:00,
2013-04-03 01:42:00,48.0,44.0,30.16,SE,139,0.0,1.0,86,-99.99,,,-99.99,,2013-04-03 08:42:00,
2013-04-03 01:52:00,48.0,44.0,30.16,SE,139,0.0,0.0,86,-99.99,,,-99.99,,2013-04-03 08:52:00,
2013-04-03 02:01:00,47.0,43.0,30.16,SE,139,0.0,0.0,87,-99.99,,,-99.99,,2013-04-03 09:01:00,
2013-04-03 02:11:00,47.0,43.0,30.16,SE,139,0.0,0.0,87,-99.99,,,-99.99,,2013-04-03 09:11:00,
2013-04-03 02:21:00,47.0,44.0,30.16,SE,139,0.0,0.0,88,-99.99,,,-99.99,,2013-04-03 09:21:00,
2013-04-03 02:32:00,47.0,43.0,30.17,South,180,0.0,1.0,87,-99.99,,,-99.99,,2013-04-03 09:32:00,
2013-04-03 02:42:00,47.0,43.0,30.17,South,180,0.0,1.0,87,-99.99,,,-99.99,,2013-04-03 09:42:00,
2013-04-03 02:52:00,47.0,43.0,30.16,South,180,0.0,1.0,86,-99.99,,,-99.99,,2013-04-03 09:52:00,
2013-04-03 03:02:00,47.0,43.0,30.16,SW,226,1.0,3.0,86,-99.99,,,-99.99,,2013-04-03 10:02:00,
2013-04-03 03:12:00,47.0,43.0,30.16,SW,226,1.0,3.0,86,-99.99,,,-99.99,,2013-04-03 10:12:00,
2013-04-03 03:22:00,47.0,43.0,30.16,SW,234,0.0,1.0,87,-99.99,,,-99.99,,2013-04-03 10:22:00,
2013-04-03 03:32:00,46.0,42.0,30.15,SW,234,0.0,1.0,87,-99.99,,,-99.99,,2013-04-03 10:32:00,
2013-04-03 03:42:00,46.0,42.0,30.15,SW,234,0.0,1.0,87,-99.99,,,-99.99,,2013-04-03 10:42:00,
2013-04-03 03:52:00,46.0,42.0,30.15,SW,234,0.0,0.0,87,-99.99,,,-99.99,,2013-04-03 10:52:00,
2013-04-03 04:02:00,46.0,43.0,30.15,SW,234,0.0,1.0,89,-99.99,,,-99.99,,2013-04-03 11:02:00,
2013-04-03 04:12:00,46.0,43.0,30.15,SW,234,0.0,1.0,89,-99.99,,,-99.99,,2013-04-03 11:12:00,
2013-04-03 04:22:00,45.0,42.0,30.15,SW,234,0.0,0.0,90,-99.99,,,-99.99,,2013-04-03 11:22:00,
2013-04-03 04:32:00,45.0,42.0,30.15,SW,234,0.0,0.0,90,-99.99,,,-99.99,,2013-04-03 11:32:00,
2013-04-03 04:41:00,45.0,42.0,30.15,SW,234,0.0,0.0,90,-99.99,,,-99.99,,2013-04-03 11:41:00,
2013-04-03 04:52:00,45.0,43.0,30.15,SW,234,0.0,0.0,91,-99.99,,,-99.99,,2013-04-03 11:52:00,
2013-04-03 05:01:00,45.0,43.0,30.15,SW,234,0.0,0.0,91,-99.99,,,-99.99,,2013-04-03 12:01:00,
2013-04-03 05:11:00,45.0,43.0,30.15,SW,234,0.0,0.0,91,-99.99,,,-99.99,,2013-04-03 12:11:00,
2013-04-03 05:22:00,45.0,43.0,30.15,SW,234,0.0,0.0,92,-99.99,,,-99.99,,2013-04-03 12:22:00,
2013-04-03 05:32:00,44.0,42.0,30.15,SW,234,0.0,0.0,92,-99.99,,,-99.99,,2013-04-03 12:32:00,
2013-04-03 05:41:00,44.0,42.0,30.15,SW,234,0.0,0.0,92,-99.99,,,-99.99,,2013-04-03 12:41:00,
2013-04-03 05:52:00,44.0,42.0,30.15,SW,234,0.0,0.0,92,-99.99,,,-99.99,,2013-04-03 12:52:00,
2013-04-03 06:02:00,45.0,43.0,30.15,SW,234,0.0,0.0,93,-99.99,,,-99.99,,2013-04-03 13:02:00,
2013-04-03 06:12:00,45.0,43.0,30.15,SW,234,0.0,0.0,93,-99.99,,,-99.99,,2013-04-03 13:12:00,
2013-04-03 06:22:00,45.0,43.0,30.15,SW,234,0.0,0.0,93,-99.99,,,-99.99,,2013-04-03 13:22:00,
2013-04-03 06:32:00,45.0,43.0,30.14,SW,234,0.0,0.0,93,-99.99,,,-99.99,,2013-04-03 13:32:00,
2013-04-03 06:41:00,45.0,43.0,30.14,SW,234,0.0,0.0,93,-99.99,,,-99.99,,2013-04-03 13:41:00,
2013-04-03 06:52:00,45.0,43.0,30.14,SW,234,0.0,0.0,93,-99.99,,,-99.99,,2013-04-03 13:52:00,
2013-04-03 07:01:00,45.0,43.0,30.14,SW,234,0.0,1.0,93,-99.99,,,-99.99,,2013-04-03 14:01:00,
2013-04-03 07:12:00,45.0,43.0,30.14,SW,234,0.0,1.0,93,-99.99,,,-99.99,,2013-04-03 14:12:00,
2013-04-03 07:21:00,45.0,43.0,30.14,SW,234,0.0,0.0,93,-99.99,,,-99.99,,2013-04-03 14:21:00,
2013-04-03 07:31:00,46.0,44.0,30.14,SW,234,0.0,0.0,94,-99.99,,,-99.99,,2013-04-03 14:31:00,
2013-04-03 07:42:00,46.0,44.0,30.14,SW,234,0.0,0.0,94,-99.99,,,-99.99,,2013-04-03 14:42:00,
2013-04-03 07:52:00,46.0,44.0,30.14,WSW,246,1.0,2.0,94,-99.99,,,-99.99,,2013-04-03 14:52:00,
2013-04-03 08:02:00,46.0,44.0,30.14,WSW,254,0.0,2.0,94,-99.99,,,-99.99,,2013-04-03 15:02:00,
2013-04-03 08:12:00,46.0,44.0,30.14,WSW,254,0.0,2.0,94,-99.99,,,-99.99,,2013-04-03 15:12:00,
2013-04-03 08:22:00,46.0,44.0,30.14,WSW,254,0.0,2.0,94,-99.99,,,-99.99,,2013-04-03 15:22:00,
2013-04-03 08:32:00,46.0,44.0,30.14,NE,38,0.0,4.0,93,-99.99,,,-99.99,,2013-04-03 15:32:00,
2013-04-03 08:42:00,46.0,44.0,30.14,NE,38,0.0,4.0,93,-99.99,,,-99.99,,2013-04-03 15:42:00,
2013-04-03 08:53:00,47.0,45.0,30.14,NE,38,1.0,2.0,93,-99.99,,,-99.99,,2013-04-03 15:53:00,
2013-04-03 09:02:00,47.0,45.0,30.13,NE,38,0.0,2.0,93,-99.99,,,-99.99,,2013-04-03 16:02:00,
2013-04-03 09:12:00,47.0,45.0,30.13,NE,38,0.0,2.0,93,-99.99,,,-99.99,,2013-04-03 16:12:00,
2013-04-03 09:23:00,48.0,45.0,30.13,NE,38,0.0,1.0,91,-99.99,,,-99.99,,2013-04-03 16:23:00,
2013-04-03 09:32:00,48.0,45.0,30.13,NE,38,1.0,3.0,89,-99.99,,,-99.99,,2013-04-03 16:32:00,
2013-04-03 09:42:00,48.0,45.0,30.13,NE,38,1.0,3.0,89,-99.99,,,-99.99,,2013-04-03 16:42:00,
2013-04-03 09:52:00,50.0,46.0,30.13,NE,38,1.0,3.0,85,-99.99,,,-99.99,,2013-04-03 16:52:00,
2013-04-03 10:02:00,51.0,46.0,30.13,NE,38,1.0,4.0,82,-99.99,,,-99.99,,2013-04-03 17:02:00,
2013-04-03 10:12:00,51.0,46.0,30.13,NE,38,1.0,4.0,82,-99.99,,,-99.99,,2013-04-03 17:12:00,
2013-04-03 10:22:00,51.0,45.0,30.12,NE,38,3.0,4.0,79,-99.99,,,-99.99,,2013-04-03 17:22:00,
2013-04-03 10:32:00,53.0,45.0,30.12,ENE,73,0.0,4.0,74,-99.99,,,-99.99,,2013-04-03 17:32:00,
2013-04-03 10:45:00,53.0,45.0,30.12,ENE,73,0.0,4.0,74,-99.99,,,-99.99,,2013-04-03 17:45:00,
2013-04-03 10:52:00,54.0,46.0,30.11,ENE,70,1.0,4.0,74,-99.99,,,-99.99,,2013-04-03 17:52:00,
2013-04-03 11:02:00,55.0,45.0,30.11,East,88,2.0,4.0,69,-99.99,,,-99.99,,2013-04-03 18:02:00,
2013-04-03 11:12:00,55.0,45.0,30.11,East,88,2.0,4.0,69,-99.99,,,-99.99,,2013-04-03 18:12:00,
2013-04-03 11:22:00,55.0,44.0,30.11,ESE,114,1.0,6.0,66,-99.99,,,-99.99,,2013-04-03 18:22:00,
2013-04-03 11:33:00,57.0,45.0,30.11,NNE,22,2.0,4.0,65,-99.99,,,-99.99,,2013-04-03 18:33:00,
2013-04-03 11:42:00,57.0,45.0,30.11,NNE,22,2.0,4.0,65,-99.99,,,-99.99,,2013-04-03 18:42:00,
2013-04-03 11:52:00,58.0,46.0,30.11,SW,219,1.0,4.0,64,-99.99,,,-99.99,,2013-04-03 18:52:00,
2013-04-03 12:01:00,58.0,46.0,30.11,WSW,240,1.0,5.0,65,-99.99,,,-99.99,,2013-04-03 19:01:00,
2013-04-03 12:11:00,58.0,46.0,30.11,WSW,240,1.0,5.0,65,-99.99,,,-99.99,,2013-04-03 19:11:00,
2013-04-03 12:21:00,56.0,46.0,30.11,NW,323,2.0,5.0,68,-99.99,,,-99.99,,2013-04-03 19:21:00,
2013-04-03 12:32:00,58.0,45.0,30.11,NW,319,1.0,5.0,62,-99.99,,,-99.99,,2013-04-03 19:32:00,
2013-04-03 12:42:00,58.0,45.0,30.11,NW,319,1.0,5.0,62,-99.99,,,-99.99,,2013-04-03 19:42:00,
2013-04-03 12:52:00,59.0,46.0,30.11,NNW,337,2.0,6.0,61,-99.99,,,-99.99,,2013-04-03 19:52:00,
2013-04-03 13:02:00,58.0,45.0,30.11,NE,56,1.0,4.0,63,-99.99,,,-99.99,,2013-04-03 20:02:00,
2013-04-03 13:12:00,58.0,45.0,30.11,NE,56,1.0,4.0,63,-99.99,,,-99.99,,2013-04-03 20:12:00,
2013-04-03 13:22:00,58.0,45.0,30.11,ENE,62,2.0,9.0,61,-99.99,,,-99.99,,2013-04-03 20:22:00,
2013-04-03 13:32:00,58.0,45.0,30.11,ENE,61,2.0,6.0,61,-99.99,,,-99.99,,2013-04-03 20:32:00,
2013-04-03 13:42:00,58.0,45.0,30.11,ENE,61,2.0,6.0,61,-99.99,,,-99.99,,2013-04-03 20:42:00,
2013-04-03 13:52:00,58.0,45.0,30.11,ENE,57,2.0,7.0,61,-99.99,,,-99.99,,2013-04-03 20:52:00,
2013-04-03 14:01:00,58.0,44.0,30.10,ENE,58,0.0,4.0,60,-99.99,,,-99.99,,2013-04-03 21:01:00,
2013-04-03 14:12:00,58.0,44.0,30.10,ENE,58,0.0,4.0,60,-99.99,,,-99.99,,2013-04-03 21:12:00,
2013-04-03 14:22:00,60.0,45.0,30.09,NW,322,1.0,3.0,58,-99.99,,,-99.99,,2013-04-03 21:22:00,
2013-04-03 14:32:00,60.0,45.0,30.09,ENE,75,2.0,4.0,58,-99.99,,,-99.99,,2013-04-03 21:32:00,
2013-04-03 14:42:00,60.0,45.0,30.09,ENE,75,2.0,4.0,58,-99.99,,,-99.99,,2013-04-03 21:42:00,
2013-04-03 14:52:00,61.0,45.0,30.09,South,187,2.0,4.0,55,-99.99,,,-99.99,,2013-04-03 21:52:00,
2013-04-03 15:02:00,61.0,45.0,30.09,SSE,159,0.0,5.0,55,-99.99,,,-99.99,,2013-04-03 22:02:00,
2013-04-03 15:12:00,61.0,45.0,30.09,SSE,159,0.0,5.0,55,-99.99,,,-99.99,,2013-04-03 22:12:00,
2013-04-03 15:22:00,62.0,44.0,30.08,NE,55,1.0,4.0,52,-99.99,,,-99.99,,2013-04-03 22:22:00,
2013-04-03 15:32:00,61.0,44.0,30.08,NE,53,1.0,5.0,53,-99.99,,,-99.99,,2013-04-03 22:32:00,
2013-04-03 15:42:00,61.0,44.0,30.08,NE,53,1.0,5.0,53,-99.99,,,-99.99,,2013-04-03 22:42:00,
2013-04-03 15:52:00,60.0,43.0,30.08,NE,45,3.0,4.0,54,-99.99,,,-99.99,,2013-04-03 22:52:00,
2013-04-03 16:01:00,60.0,43.0,30.06,NNE,30,1.0,4.0,54,-99.99,,,-99.99,,2013-04-03 23:01:00,
2013-04-03 16:11:00,60.0,43.0,30.06,NNE,30,1.0,4.0,54,-99.99,,,-99.99,,2013-04-03 23:11:00,
2013-04-03 16:21:00,61.0,44.0,30.06,NNW,329,1.0,3.0,54,-99.99,,,-99.99,,2013-04-03 23:21:00,
2013-04-03 16:32:00,61.0,44.0,30.06,ENE,69,1.0,3.0,53,-99.99,,,-99.99,,2013-04-03 23:32:00,
2013-04-03 16:42:00,61.0,44.0,30.06,ENE,69,1.0,3.0,53,-99.99,,,-99.99,,2013-04-03 23:42:00,
2013-04-03 16:54:00,60.0,44.0,30.05,ENE,68,2.0,5.0,56,-99.99,,,-99.99,,2013-04-03 23:54:00,
2013-04-03 17:02:00,60.0,44.0,30.05,ENE,68,0.0,2.0,56,-99.99,,,-99.99,,2013-04-04 00:02:00,
2013-04-03 17:12:00,60.0,44.0,30.05,ENE,68,0.0,2.0,56,-99.99,,,-99.99,,2013-04-04 00:12:00,
2013-04-03 17:22:00,60.0,43.0,30.05,ENE,68,0.0,3.0,54,-99.99,,,-99.99,,2013-04-04 00:22:00,
2013-04-03 17:32:00,61.0,43.0,30.05,East,94,2.0,3.0,52,-99.99,,,-99.99,,2013-04-04 00:32:00,
2013-04-03 17:42:00,61.0,43.0,30.05,East,94,2.0,3.0,52,-99.99,,,-99.99,,2013-04-04 00:42:00,
2013-04-03 17:52:00,60.0,43.0,30.03,ENE,60,1.0,3.0,53,-99.99,,,-99.99,,2013-04-04 00:52:00,
2013-04-03 18:02:00,60.0,43.0,30.03,ENE,59,1.0,3.0,54,-99.99,,,-99.99,,2013-04-04 01:02:00,
2013-04-03 18:11:00,60.0,43.0,30.03,ENE,59,1.0,3.0,54,-99.99,,,-99.99,,2013-04-04 01:11:00,
2013-04-03 18:22:00,60.0,43.0,30.03,ENE,74,1.0,3.0,54,-99.99,,,-99.99,,2013-04-04 01:22:00,
2013-04-03 18:31:00,60.0,43.0,30.03,ENE,74,0.0,2.0,54,-99.99,,,-99.99,,2013-04-04 01:31:00,
2013-04-03 18:42:00,60.0,43.0,30.03,ENE,74,0.0,2.0,54,-99.99,,,-99.99,,2013-04-04 01:42:00,
2013-04-03 18:52:00,60.0,43.0,30.02,ENE,74,0.0,2.0,54,-99.99,,,-99.99,,2013-04-04 01:52:00,
2013-04-03 19:01:00,59.0,43.0,30.01,ENE,74,1.0,1.0,55,-99.99,,,-99.99,,2013-04-04 02:01:00,
2013-04-03 19:11:00,59.0,43.0,30.01,ENE,74,1.0,1.0,55,-99.99,,,-99.99,,2013-04-04 02:11:00,
2013-04-03 19:22:00,59.0,44.0,30.00,ENE,74,0.0,1.0,57,-99.99,,,-99.99,,2013-04-04 02:22:00,
2013-04-03 19:32:00,58.0,44.0,30.00,ENE,74,0.0,0.0,60,-99.99,,,-99.99,,2013-04-04 02:32:00,
2013-04-03 19:42:00,58.0,44.0,30.00,ENE,74,0.0,0.0,60,-99.99,,,-99.99,,2013-04-04 02:42:00,
2013-04-03 19:52:00,58.0,44.0,30.00,ENE,74,0.0,0.0,60,-99.99,,,-99.99,,2013-04-04 02:52:00,
2013-04-03 20:02:00,57.0,44.0,29.99,NNW,331,0.0,4.0,62,-99.99,,,-99.99,,2013-04-04 03:02:00,
2013-04-03 20:11:00,57.0,44.0,29.99,NNW,331,0.0,4.0,62,-99.99,,,-99.99,,2013-04-04 03:11:00,
2013-04-03 20:22:00,56.0,44.0,29.98,NNW,329,0.0,3.0,64,-99.99,,,-99.99,,2013-04-04 03:22:00,
2013-04-03 20:33:00,55.0,43.0,29.98,NNW,334,0.0,2.0,65,-99.99,,,-99.99,,2013-04-04 03:33:00,
2013-04-03 20:43:00,55.0,43.0,29.98,NNW,334,0.0,2.0,65,-99.99,,,-99.99,,2013-04-04 03:43:00,
2013-04-03 20:53:00,54.0,43.0,29.98,NNW,334,0.0,2.0,66,-99.99,,,-99.99,,2013-04-04 03:53:00,
2013-04-03 21:02:00,54.0,43.0,29.98,NNW,327,0.0,5.0,67,-99.99,,,-99.99,,2013-04-04 04:02:00,
2013-04-03 21:12:00,54.0,43.0,29.98,NNW,327,0.0,5.0,67,-99.99,,,-99.99,,2013-04-04 04:12:00,
2013-04-03 21:22:00,54.0,44.0,29.97,NNW,327,0.0,2.0,68,-99.99,,,-99.99,,2013-04-04 04:22:00,
2013-04-03 21:33:00,54.0,44.0,29.97,NNW,327,0.0,3.0,69,-99.99,,,-99.99,,2013-04-04 04:33:00,
2013-04-03 21:42:00,54.0,44.0,29.97,NNW,327,0.0,3.0,69,-99.99,,,-99.99,,2013-04-04 04:42:00,
2013-04-03 21:52:00,53.0,43.0,29.97,NNW,327,1.0,2.0,70,-99.99,,,-99.99,,2013-04-04 04:52:00,
2013-04-03 22:02:00,53.0,44.0,29.97,NNW,327,0.0,3.0,71,-99.99,,,-99.99,,2013-04-04 05:02:00,
2013-04-03 22:12:00,53.0,44.0,29.97,NNW,327,0.0,3.0,71,-99.99,,,-99.99,,2013-04-04 05:12:00,
2013-04-03 22:22:00,53.0,44.0,29.97,WNW,300,0.0,3.0,72,-99.99,,,-99.99,,2013-04-04 05:22:00,
2013-04-03 22:32:00,53.0,45.0,29.97,NNW,338,0.0,3.0,73,-99.99,,,-99.99,,2013-04-04 05:32:00,
2013-04-03 22:42:00,53.0,45.0,29.97,NNW,338,0.0,3.0,73,-99.99,,,-99.99,,2013-04-04 05:42:00,
2013-04-03 22:52:00,52.0,44.0,29.96,NNW,338,0.0,2.0,74,-99.99,,,-99.99,,2013-04-04 05:52:00,
2013-04-03 23:02:00,52.0,45.0,29.95,NNW,333,0.0,3.0,76,-99.99,,,-99.99,,2013-04-04 06:02:00,
2013-04-03 23:12:00,52.0,45.0,29.95,NNW,333,0.0,3.0,76,-99.99,,,-99.99,,2013-04-04 06:12:00,
2013-04-03 23:21:00,52.0,45.0,29.95,NNW,333,0.0,2.0,76,-99.99,,,-99.99,,2013-04-04 06:21:00,
2013-04-03 23:32:00,52.0,45.0,29.95,NNW,333,0.0,0.0,77,-99.99,,,-99.99,,2013-04-04 06:32:00,
2013-04-03 23:42:00,52.0,45.0,29.95,NNW,333,0.0,0.0,77,-99.99,,,-99.99,,2013-04-04 06:42:00,
2013-04-03 23:52:00,52.0,45.0,29.94,NNW,333,0.0,2.0,77,-99.99,,,-99.99,,2013-04-04 06:52:00,